Tulsa Jones, OK

12:56 AM CDT on September 26, 2017 (GMT -0500)
Jones Jr.

Weather History for KRVS - September, 2013

Change the Weather History Date:

Saturday, September 28, 2013

  Actual Average (KTUL) Record (KTUL)
Temperature  
Mean Temperature 68 °F -  
Max Temperature 79 °F 79 °F 102 °F (1953)
Min Temperature 55 °F 58 °F 38 °F (1908)
Cooling Degree Days 3    
Growing Degree Days 18 (Base 50)    
Moisture  
Dew Point 63 °F    
Average Humidity 85    
Maximum Humidity 100    
Minimum Humidity 60    
Precipitation  
Precipitation 1.39 in - - ()
Sea Level Pressure  
Sea Level Pressure 29.97 in    
Wind  
Wind Speed 7 mph (South)    
Max Wind Speed 13 mph    
Max Gust Speed 20 mph    
Visibility 5 miles    
Events Rain    
Averages and records for this station are not official NWS values.
T = Trace of Precipitation, MM = Missing Value Source: NWS Daily Summary

Daily Weather History Graph

Daily Weather History Graph

Search for Another Location

Airport or City:

Trip Planner

Search our weather history database for the weather conditions in past years. The results will help you decide how hot, cold, wet, or windy it might be!

Date:

Astronomy

Sep. 28, 2013 Rise Set
Actual Time 7:16 AM CDT 7:11 PM CDT
Civil Twilight 6:51 AM CDT 7:37 PM CDT
Nautical Twilight 6:21 AM CDT 8:06 PM CDT
Astronomical Twilight 5:51 AM CDT 8:36 PM CDT
Moon 1:14 AM CDT (9/28) 3:22 PM CDT (9/28)
Length of Visible Light 12h 45m
Length of Day
11h 54m
Waning Crescent, 36% of the Moon is Illuminated
Sep 28
Waning Crescent
Oct 4
New
Oct 11
First Quarter
Oct 18
Full
Oct 26
Last Quarter

Hourly Weather History & Observations

Time (CDT) Temp. Dew Point Humidity Pressure Visibility Wind Dir Wind Speed Gust Speed Precip Events Conditions
12:53 AM 77.0 °F 62.1 °F 60% 29.87 in 10.0 mi SSE 12.7 mph 17.3 mph N/A   Clear
1:53 AM 75.9 °F 62.1 °F 62% 29.88 in - South 8.1 mph - N/A   Partly Cloudy
2:53 AM 75.0 °F 62.1 °F 64% 29.87 in - South 8.1 mph - N/A   Mostly Cloudy
3:53 AM 75.0 °F 63.0 °F 66% 29.86 in - SSE 10.4 mph - N/A   Overcast
4:53 AM 75.0 °F 63.0 °F 66% 29.88 in - South 6.9 mph - N/A   Overcast
5:53 AM 75.0 °F 64.0 °F 69% 29.88 in - SSE 6.9 mph - N/A   Overcast
6:15 AM 75.2 °F 64.4 °F 69% 29.87 in - South 8.1 mph - N/A   Mostly Cloudy
6:53 AM 77.0 °F 64.9 °F 66% 29.89 in - South 10.4 mph - N/A   Overcast
7:37 AM 77.0 °F 66.2 °F 69% 29.88 in - South 11.5 mph - N/A   Overcast
7:53 AM 77.0 °F 66.0 °F 69% 29.89 in - South 10.4 mph - N/A   Overcast
8:53 AM 79.0 °F 66.9 °F 66% 29.91 in - South 11.5 mph 19.6 mph N/A   Overcast
9:53 AM 73.9 °F 66.0 °F 76% 29.96 in - Variable 5.8 mph - N/A   Overcast
10:41 AM 69.8 °F 69.8 °F 100% 29.97 in - Calm Calm - 0.79 in Rain Heavy Rain
10:53 AM 69.1 °F 69.1 °F 100% 29.98 in - NE 5.8 mph - 0.86 in Rain Heavy Rain
11:35 AM 69.8 °F 69.8 °F 100% 29.97 in - Calm Calm - 0.15 in Rain Rain
11:50 AM 69.8 °F 69.8 °F 100% 29.97 in - Calm Calm - 0.20 in Rain Rain
11:53 AM 70.0 °F 69.1 °F 97% 29.98 in - Variable 3.5 mph - 0.21 in Rain Rain
12:13 PM 69.8 °F 68.0 °F 94% 29.98 in 3.0 mi Variable 3.5 mph - 0.09 in Rain Heavy Rain
12:53 PM 69.1 °F 68.0 °F 96% 29.99 in 3.0 mi Variable 3.5 mph - 0.21 in Rain Rain
1:08 PM 66.2 °F 64.4 °F 94% 29.98 in - WNW 8.1 mph - 0.02 in Rain Rain
1:17 PM 64.4 °F 62.6 °F 94% 29.99 in - Variable 3.5 mph - 0.04 in Rain Rain
1:29 PM 62.6 °F 60.8 °F 94% 29.99 in - NW 11.5 mph 19.6 mph 0.06 in Rain Rain
1:53 PM 62.1 °F 60.1 °F 93% 30.01 in - NNW 8.1 mph - 0.09 in Rain Light Rain
2:48 PM 60.8 °F 59.0 °F 94% 29.99 in - Variable 5.8 mph - 0.02 in Rain Light Rain
2:53 PM 61.0 °F 60.1 °F 97% 30.01 in - North 8.1 mph - 0.02 in Rain Light Rain
3:24 PM 62.6 °F 60.8 °F 94% 30.01 in - NNW 4.6 mph - 0.00 in   Overcast
3:53 PM 62.1 °F 60.1 °F 93% 30.02 in - North 5.8 mph - 0.00 in   Overcast
4:34 PM 64.4 °F 60.8 °F 88% 29.99 in - Variable 5.8 mph - N/A   Overcast
4:53 PM 64.9 °F 60.1 °F 84% 30.01 in - NNW 9.2 mph - N/A   Overcast
5:17 PM 64.4 °F 59.0 °F 83% 30.00 in - Variable 4.6 mph - N/A   Overcast
5:53 PM 64.9 °F 57.9 °F 78% 30.04 in - Variable 4.6 mph - N/A   Overcast
6:53 PM 64.9 °F 59.0 °F 81% 30.04 in - Calm Calm - N/A   Mostly Cloudy
7:53 PM 62.1 °F 59.0 °F 90% 30.06 in - Calm Calm - N/A   Partly Cloudy
8:53 PM 60.1 °F 59.0 °F 96% 30.08 in - Calm Calm - N/A   Mostly Cloudy
9:53 PM 57.9 °F 57.9 °F 100% 30.10 in - Calm Calm - N/A   Clear
10:53 PM 57.0 °F 57.0 °F 100% 30.12 in - Calm Calm - N/A   Clear
11:53 PM 55.0 °F 55.0 °F 100% 30.13 in - Calm Calm - N/A   Clear